Regional Weather Roundup
Issued by NWS

Home | Current Version | Previous Version | Text Only | Print | Product List | Glossary On
Versions: 1 2 3 4 5 6 7 8 9 10 11 12 13 14 15 16 17 18 19 20 21 22 23 24 25 26 27 28 29 30 31 32 33 34 35 36 37 38 39 40 41 42 43 44 45 46 47 48 49 50
000
ASUS43 KDTX 201810
RWRMI
MICHIGAN HOURLY REGIONAL WEATHER ROUNDUP
NATIONAL WEATHER SERVICE DETROIT/PONTIAC MI
200 PM EDT MON OCT 20 2014

NOTE: "FAIR" INDICATES FEW OR NO CLOUDS BELOW 12,000 FEET WITH NO
SIGNIFICANT WEATHER AND/OR OBSTRUCTION TO VISIBILITY.

MIZ047>049-052>055-059>063-066>070-074>076-081>083-201900-
SOUTHEAST LOWER MICHIGAN

CITY           SKY/WX    TMP DP  RH WIND       PRES   REMARKS
ADRIAN         CLOUDY    52  50  93 W7        29.81F
6HR MIN TEMP:  47; 6HR MAX TEMP:  55; 6HR PCP:  0.01;

ALMA           CLOUDY    60  49  66 NW9       29.78S
ANN ARBOR      CLOUDY    56  47  71 CALM      29.78F
BAD AXE        CLOUDY    52  49  91 W8        29.78S
CARO           CLOUDY    55  48  78 W3        29.77F
DETROIT CITY   PTSUNNY   57  46  66 SW13      29.80F
6HR MIN TEMP:  50; 6HR MAX TEMP:  59;

DETROIT        LGT RAIN  56  48  74 SW8       29.80F
6HR MIN TEMP:  47; 6HR MAX TEMP:  57; 6HR PCP: TRACE;

FLINT          CLOUDY    57  47  69 SW12      29.78F
6HR MIN TEMP:  49; 6HR MAX TEMP:  57;

GROSSE ILE     CLOUDY    57  50  77 S9        29.78F
HILLSDALE      CLOUDY    52  52  99 W7        29.81S
6HR MIN TEMP:  47; 6HR MAX TEMP:  55;

HOWELL         CLOUDY    54  47  77 W6        29.78F
6HR MIN TEMP:  46; 6HR MAX TEMP:  55;


CITY           SKY/WX    TMP DP  RH WIND       PRES   REMARKS
JACKSON        CLOUDY    54  46  74 W12G18    29.80S
6HR MIN TEMP:  46; 6HR MAX TEMP:  55;

LAMBERTVILLE   CLOUDY    54  48  82 S6        29.79F
LANSING        PTSUNNY   55  48  77 SW12      29.79F
6HR MIN TEMP:  46; 6HR MAX TEMP:  55; 6HR PCP: TRACE;

LAPEER         CLOUDY    55  46  72 W6        29.78F
MASON          CLOUDY    55  47  76 W8        29.79S
MONROE         MOSUNNY   59  48  67 SW9       29.78F
MT. CLEMENS    PTSUNNY   57  46  68 SW10      29.77F
6HR MIN TEMP:  48; 6HR MAX TEMP:  58;

PONTIAC        CLOUDY    54  45  71 VRB7      29.78F
6HR MIN TEMP:  46; 6HR MAX TEMP:  54;

PORT HOPE        N/A     53  47  79 VRB6      29.75F
6HR MIN TEMP:  47; 6HR MAX TEMP:  53; 6HR PCP:  0.01;

PORT HURON     CLOUDY    52  48  87 CALM      29.79S
TRI CITIES     CLOUDY    55  48  77 W7        29.79F
6HR MIN TEMP:  50; 6HR MAX TEMP:  55;

TROY           CLOUDY    56  46  70 SW6       29.81S
SAGINAW HB     CLOUDY    55  46  71 SW7       29.76F
$$
MIZ043>046-050>051-056>058-064>065-071>073-077>080-201900-
SOUTHWEST LOWER MICHIGAN

CITY           SKY/WX    TMP DP  RH WIND       PRES   REMARKS
BATTLE CREEK   CLOUDY    53  47  79 W8        29.81F
6HR MIN TEMP:  48; 6HR MAX TEMP:  54; 6HR PCP: TRACE;

BENTON HARBOR  CLOUDY    54  48  80 W12       29.82F
6HR MIN TEMP:  46; 6HR MAX TEMP:  55; 6HR PCP:  0.01;

BIG RAPIDS     CLOUDY    55  52  90 NW7       29.78F
6HR MIN TEMP:  43; 6HR MAX TEMP:  55;

COLDWATER      CLOUDY    53  51  93 NW3       29.81F
6HR MIN TEMP:  49; 6HR MAX TEMP:  54;

FREMONT        CLOUDY    55  48  78 N7        29.79F
HOLLAND        MOSUNNY   60  51  72 NW8       29.81F
6HR MIN TEMP:  47; 6HR MAX TEMP:  61;

GRAND RAPIDS   MOSUNNY   61  50  67 W8        29.79F
6HR MIN TEMP:  47; 6HR MAX TEMP:  61;

IONIA          MOCLDY    59  49  69 W8        29.78F
KALAMAZOO      CLOUDY    54  48  80 W8        29.82F
6HR MIN TEMP:  46; 6HR MAX TEMP:  54; 6HR PCP:  0.01;

LUDINGTON      MOSUNNY   55  48  78 N14       29.82F
6HR MIN TEMP:  41; 6HR MAX TEMP:  55;

MARSHALL       CLOUDY    50  47  91 SW7       29.80F
MOUNT PLEASANT CLOUDY    58  49  70 NW5       29.76F
6HR MIN TEMP:  46; 6HR MAX TEMP:  58;

MUSKEGON       CLOUDY    58  49  72 W6        29.80F
6HR MIN TEMP:  48; 6HR MAX TEMP:  60;

SOUTH HAVEN    CLOUDY    57  50  76 W8        29.81F
$$
MIZ016>042-201900-
NORTHERN LOWER MICHIGAN

CITY           SKY/WX    TMP DP  RH WIND       PRES   REMARKS
ALPENA         CLOUDY    52  48  86 NW3       29.75F
6HR MIN TEMP:  46; 6HR MAX TEMP:  52;

BEAVER ISLAND  CLOUDY    49  44  81 NW10G16   29.81S
6HR MIN TEMP:  47; 6HR MAX TEMP:  49;

BELLAIRE       CLOUDY    49  44  80 NW7       29.81S
CADILLAC       CLOUDY    52  46  81 N7        29.78S
CHARLEVOIX     CLOUDY    49  46  87 NW10      29.83S
6HR MIN TEMP:  49; 6HR MAX TEMP:  52;

FRANKFORT      CLOUDY    51  44  77 N6        29.83F
GAYLORD        CLOUDY    47  42  83 MISG      29.78R
6HR MIN TEMP:  46; 6HR MAX TEMP:  49;

GRAYLING       CLOUDY    54  47  77 W9        29.78S
HARBOR SPRINGS CLOUDY    49  45  84 W8        29.79S
HOUGHTON LAKE  CLOUDY    54  46  74 NW12      29.77F
6HR MIN TEMP:  48; 6HR MAX TEMP:  54;

MANISTEE       CLOUDY    52  43  71 N10G17    29.83S
OSCODA         CLOUDY    51  49  91 W5        29.75S
PELLSTON       CLOUDY    49  44  83 NW13      29.79S
6HR MIN TEMP:  49; 6HR MAX TEMP:  51;

ROGERS CITY    CLOUDY    50  48  93 NW8       29.77S
TRAVERSE CITY  CLOUDY    50  42  74 NW10G17   29.81S
6HR MIN TEMP:  50; 6HR MAX TEMP:  54;

$$
MIZ007>008-015-201900-
EASTERN UPPER MICHIGAN

CITY           SKY/WX    TMP DP  RH WIND       PRES   REMARKS
KINROSS        CLOUDY    46  46 100 NW8       29.77S
6HR MIN TEMP:  46; 6HR MAX TEMP:  46; 6HR PCP:  0.02;

MACKINAC ISLAN CLOUDY    48  45  88 NW8       29.78S
6HR MIN TEMP:  48; 6HR MAX TEMP:  50;

NEWBERRY       CLOUDY    45  42  89 NW12G17   29.80S
S. S. MARIE    CLOUDY    50  44  80 NW10      29.76S
6HR MIN TEMP:  46; 6HR MAX TEMP:  50; 6HR PCP:  0.05;

MUNISING         N/A     48  42  80 N17       29.84S
6HR MIN TEMP:  47; 6HR MAX TEMP:  48;

$$
MIZ004>006-011>014-085-201900-
CENTRAL UPPER MICHIGAN

CITY           SKY/WX    TMP DP  RH WIND       PRES   REMARKS
MANISTIQUE     CLOUDY    48  42  80 NW16G26   29.81S
ESCANABA       CLOUDY    48  41  76 NW7       29.85S
6HR MIN TEMP:  46; 6HR MAX TEMP:  48;

MENOMINEE      CLOUDY    50  41  71 N13G21    29.86S
6HR MIN TEMP:  45; 6HR MAX TEMP:  52;

SAWYER-GWINN   CLOUDY    45  41  87 N12G17    29.85F
$$
MIZ001>003-009>011-084-201900-
WESTERN UPPER MICHIGAN

CITY           SKY/WX    TMP DP  RH WIND       PRES   REMARKS
IRON MOUNTAIN  LGT RAIN  47  42  83 N12       29.87S
6HR MIN TEMP:  46; 6HR MAX TEMP:  49; 6HR PCP: TRACE;

HOUGHTON       CLOUDY    45  39  79 N7        29.90R
6HR MIN TEMP:  45; 6HR MAX TEMP:  46; 6HR PCP: TRACE;

COPPER HARBOR    N/A     45  41  86 N20       29.89R
6HR MIN TEMP:  45; 6HR MAX TEMP:  47;

IRONWOOD       CLOUDY    48  43  81 NW14      29.92S
6HR MIN TEMP:  45; 6HR MAX TEMP:  48;

$$

ABBREVIATIONS USED IN REMARKS
   TC - TEMPERATURE IN CELSIUS
  WCI - WIND CHILL INDEX
   HX - HEAT INDEX
  VSB - VISIBILITY




USA.gov is the U.S. government's official web portal to all federal, state and local government web resources and services.